Notices

What’s New in latest Release from January 14th 2021:

·       In Historical Hourly Data Report, users can switch between Local Standard Time (LST) and Universal Time Coordinates (UTC) time.

·       In Historical Hourly Data Report, we have an addition of a new column to display hourly precipitation data for the stations where the data are available, from 2001 onwards.

·       Expanded the Search Options of the Canadian Historical Weather Radar, users now able to select 24 hours (1 image every hour) image viewing duration.

Please note that the IDF dataset is available through this link: Intensity-Duration-Frequency (IDF) Files .

Hourly Data Report for March 11, 2012

HALIFAX STANFIELD INT'L A
NOVA SCOTIA

44°52'48.060" N
63°30'00.050" W
145.40 m
8202250
71395
YHZ

Download Data

Hourly Data (March 2012)
Hourly Data Report for March 11, 2012
TIME
LST
Temp Definition
°C
Dew Point Definition
°C
Rel Hum Definition
%
Precip. Amount Definition
mm

Wind Dir Definition
10's deg

Wind Spd Definition
km/h
Visibility Definition
km
Stn Press Definition
kPa
Hmdx Definition


Wind Chill Definition


Weather Definition


00:00 -6.4 -9.2 80   19 6 24.1 101.34   -9 Clear
01:00 -7.0 -9.3 84   18 7 24.1 101.33   -11 Clear
02:00 -7.3 -9.4 85   19 11 24.1 101.37   -12 Clear
03:00 -7.7 -9.7 86   19 9 24.1 101.35   -12 Clear
04:00 -7.6 -9.6 86   21 13 24.1 101.33   -13 Clear
05:00 -6.9 -9.0 85   21 13 24.1 101.34   -12 Clear
06:00 -6.8 -8.8 86   21 11 24.1 101.34   -12 Clear
07:00 -5.3 -7.4 85   21 13 24.1 101.38   -10 Mainly Clear
08:00 -3.3 -6.2 80   21 13 24.1 101.40   -8 Mainly Clear
09:00 -0.5 -5.7 68   21 20 24.1 101.39   -6 Mainly Clear
10:00 1.4 -6.9 54   23 20 24.1 101.37     Mainly Clear
11:00 2.5 -7.4 48   24 20 24.1 101.30     Mostly Cloudy
12:00 2.8 -7.8 46   24 20 24.1 101.25     Cloudy
13:00 3.7 -6.5 47   22 22 24.1 101.11     Mostly Cloudy
14:00 2.6 -5.3 56   20 28 16.1 101.07     Snow Showers
15:00 2.1 -4.7 61   21 33 24.1 100.96     Snow Showers
16:00 2.1 -5.4 58   20 32 24.1 100.86     Mostly Cloudy
17:00 1.3 -5.0 63   20 37 24.1 100.79     Cloudy
18:00 0.4 -3.4 76   20 33 16.1 100.75     Snow Showers
19:00 0.4 -2.3 82   20 26 16.1 100.72     Snow Showers
20:00 0.9 -1.1 86   19 22 16.1 100.66     Snow Showers
21:00 1.4 -0.3 88   21 20 24.1 100.61     Cloudy
22:00 1.6 -0.1 88   21 19 24.1 100.57     Cloudy
23:00 0.2 -1.0 92   22 9 24.1 100.53     Mainly Clear

Notes on Data Quality.

Legend

  • E = Estimated
  • M = Missing
  • NA = Not Available*
  • [empty] = Indicates an unobserved value
Date modified: